Regional Weather Roundup
Issued by NWS Grand Forks, ND

Home | Current Version | Previous Version | Text Only | Print | Product List | Glossary Off
Versions: 1 2 3 4 5 6 7 8 9 10 11 12 13 14 15 16 17 18 19 20 21 22 23 24 25 26 27 28 29 30 31 32 33 34 35 36 37 38 39 40 41 42 43 44 45 46 47 48 49 50

000
ASUS43 KFGF 250210
RWRFGF
PRAIRIE TO PINES  WEATHER ROUNDUP
NATIONAL WEATHER SERVICE EASTERN NORTH DAKOTA/GRAND FORKS ND
900 PM CDT TUE MAY 24 2016

 **SATELLITE DATA USED TO AUGMENT SKY COVER AT AUTOMATED STATIONS**
 *****  WEATHER ACROSS EASTERN NORTH DAKOTA  *****

CITY           SKY/WX    TMP DP  RH WIND       PRES   REMARKS
GRAND FORKS    CLEAR     75  48  38 E3        29.86R
GRAND FRKS AFB NOT AVBL
GRAND FRKS NWS   N/A     70 N/A N/A E3          N/A
DEVILS LAKE    PTCLDY    72  51  47 SE3       29.87S
FARGO          CLEAR     76  39  26 NE9       29.84S
WAHPETON ARPT  CLEAR     75  45  33 E7        29.83S
$$

 ***** WEATHER ACROSS CENTRAL AND WESTERN NORTH DAKOTA  *****

CITY           SKY/WX    TMP DP  RH WIND       PRES   REMARKS
BISMARCK       CLOUDY    71  45  39 E3        29.83S
MINOT          CLEAR     71  43  36 W6        29.84S
JAMESTOWN      NOT AVBL
MINOT AFB      NOT AVBL
GARRISON         N/A     73  43  33 CALM      29.86R
WILLISTON      CLEAR     67  37  33 W7        29.85S
DICKINSON      CLOUDY    60  48  64 NE8       29.84S
HETTINGER      CLOUDY    63  45  51 N5        29.84S
$$

 *****  OTHER AIRPORT OBSERVATIONS IN OUR AREA  *****

CITY           SKY/WX    TMP DP  RH WIND       PRES   REMARKS
WALHALLA       FAIR      70  50  49 CALM      29.87R
GRAFTON AIRPOR FAIR      70  57  64 SE6       29.88S
VALLEY CITY AR FAIR      68  55  64 E7        29.89R
CANDO          NOT AVBL
CAVALIER APRT  FAIR      70  55  60 SE3       29.87R
GWINNER        FAIR      73  48  40 N12       29.85R
SHEYENNE NWR     N/A     73  49  41 NE5       29.95S
ROLLA          FAIR      66  41  39 N5        29.90R
 ***** THE ABOVE OBSERVATIONS ARE NON NWS ARE NOT QUALITY
       CONTROLLED AND MAY MIS-REPORT RAIN FOR SNOW...
$$

  *****  WEATHER ACROSS NORTHERN MINNESOTA  *****

CITY           SKY/WX    TMP DP  RH WIND       PRES   REMARKS
FLAG ISLAND    CLEAR     68  48  49 E5        29.91S
WARROAD        CLEAR     64  57  77 E8        29.92R
ROSEAU         CLEAR     68  52  56 E7        29.90S
HALLOCK        CLEAR     72  46  40 E8        29.86S
THF RVR FALLS  CLEAR     72  48  43 N3        29.90S
BAUDETTE       CLEAR     66  50  56 E7        29.91R
WASKISH        CLEAR     70  54  56 NE8       29.91R
CROOKSTON      CLEAR     73  48  40 CALM      29.88S
STEPHEN NDAWN    N/A     73  48  40 SE2         N/A
GREENBUSH NDAW   N/A     66  52  59 NE3         N/A
$$
  *****  WEATHER ACROSS CENTRAL AND WEST MINNESOTA  *****

CITY           SKY/WX    TMP DP  RH WIND       PRES   REMARKS
FOSSTON        CLEAR     68  52  56 N3        29.90R
BEMIDJI        CLEAR     67  45  44 CALM      29.90R
PARK RAPIDS    CLEAR     71  52  50 SE10      29.90R
ELBOW LAKE     FAIR      72  57  58 SE14      29.85R
WADENA         CLEAR     66  55  68 SE7       29.88S
DETROIT LAKES  CLEAR     72  46  40 NE7       29.89S
MOORHEAD       CLEAR     75  43  31 NE8       29.86R
FERGUS FALLS   CLEAR     75  52  43 E6        29.82R
MORRIS MN      CLEAR     73  55  53 SE8       29.83R
STAPLES        CLEAR     63  55  77 CALM      29.90S
$$
  *****  WEATHER ELSEWHERE ACROSS MINNESOTA  *****

CITY           SKY/WX    TMP DP  RH WIND       PRES   REMARKS
DULUTH         CLOUDY    57  55  93 E10       29.96R FOG
INTRNTL FALLS  CLEAR     61  50  67 E8        29.94R
ELY            HAZE      61  52  72 SE9       29.96R VSB 1
CLOQUET        CLOUDY    55  54  94 E9        29.96R FOG
WHEATON        CLEAR     77  52  41 CALM      29.83S
BRAINERD       CLOUDY    62  57  83 E7        29.91F
HIBBING        CLEAR     60  49  66 CALM      29.91R
ALEXANDRIA     CLEAR     68  54  60 E8        29.88F
SAINT CLOUD    CLEAR     69  58  67 NE5       29.88F
MINNEAPOLIS    PTCLDY    79  48  33 E9        29.88R
$$

  *****  WEATHER ACROSS SOUTH DAKOTA  *****

CITY           SKY/WX    TMP DP  RH WIND       PRES   REMARKS
SIOUX FALLS    PTCLDY    76  54  46 SE13      29.84R
BROOKINGS      CLEAR     76  45  33 CALM      29.84S
WATERTOWN      CLEAR     74  48  39 CALM      29.84S
HURON          CLEAR     72  52  49 MISG      29.80S
SISSETON         N/A     78  43  28 CALM      29.81S
ABERDEEN       CLEAR     74  44  34 NE5       29.81S
MITCHELL       CLOUDY    73  60  63 E7        29.79F
PIERRE         CLOUDY    69  51  52 NE6       29.76F
MOBRIDGE       CLOUDY    72  50  45 E10       29.78F
RAPID CITY     RAIN      56  48  74 SE38G52   29.74F
$$

  *****  SOME WEATHER IN NEARBY STATES *****

CITY           SKY/WX    TMP DP  RH WIND       PRES   REMARKS
GLASGOW MT     CLEAR     60  41  49 NW5       29.86S
GREAT FALLS MT CLOUDY    57  37  47 CALM      29.88R
CHEYENNE WY    CLOUDY    55  43  63 S9        29.88R
SCOTTSBLUFF NE CLOUDY    59  48  67 SE10      29.81R
OMAHA NE       PTCLDY    74  60  61 E6        29.84F
DES MOINES IA  PTCLDY    76  60  57 S7        29.88F
DAVENPORT IA   MOCLDY    78  59  51 SW6       29.93R
CHICAGO IL     MOCLDY    78  52  40 S9        29.93R
EAU CLAIRE WI  CLEAR     66  55  67 CALM      29.91R
LA CROSSE WI   CLEAR     74  59  59 E3        29.91R
$$

  *****  SOME NATIONAL WEATHER *****

CITY           SKY/WX    TMP DP  RH WIND       PRES   REMARKS
LA GUARDIA NY  MOCLDY    68  58  70 CALM      29.97R
RALEIGH NC     PTCLDY    69  55  60 SW3       30.13R
ATLANTA GA     CLEAR     75  53  46 CALM      30.15R
NEW ORLEANS LA PTCLDY    80  71  74 SE9       30.09R
OKLAHOMA CITY  CLOUDY    77  70  79 SE18G28   29.87S
ALBUQUERQUE NM PTCLDY    79  10   7 SW15      29.93R
SALT LAKE CITY MOCLDY    62  36  37 CALM      29.89R
LOS ANGELES CA MOCLDY    61  52  72 W18       30.02S
BOISE ID       MOSUNNY   68  32  26 NW18      29.82R
SEATTLE WA     CLOUDY    65  47  52 VRB3      30.00S
$$

*** WEATHER ACROSS MANITOBA...SASKATCHEWAN AND ONTARIO ***
                ***ONTARIO***

CITY           SKY/WX    TMP DP  RH WIND       PRES   REMARKS
GERALDTON      CLOUDY    50  41  71 E6        30.07R
THUNDER BAY    MOCLDY    57  54  88 SE7       30.03R
SIOUX LOOKOUT  CLOUDY    54  54 100 E5        29.99R
TORONTO        MOCLDY    72  36  26 W6        29.97R
BIG TROUT LK   CLOUDY    48  37  66 E6        30.09R
PICKLE LAKE    CLOUDY    52  45  76 SE8       30.04S
DRYDEN         CLEAR     55  52  88 E5        29.97R
KENORA         PTCLDY    61  52  72 E8        29.95R
$$
                *** MANITOBA***

CITY           SKY/WX    TMP DP  RH WIND       PRES   REMARKS
BRANDON        PTCLDY    68  41  37 NW7       29.88R
DAUPHIN        CLEAR     57  52  82 NE8       29.91R
ISLAND LAKE    MOCLDY    50  43  76 E6        30.01F
PILOT MOUND    NOT AVBL
THE PAS        MOCLDY    54  43  66 CALM      29.95S
THOMPSON       MOCLDY    50  36  57 E3        30.01S
WINNIPEG       PTCLDY    63  50  63 E8        29.89S
LYNN LAKE      CLOUDY    55  39  54 S8        29.95S
CHURCHILL      CLOUDY    34  25  69 SE14      30.14S WCI  24
GILLAM         MOCLDY    45  30  57 E5        30.07S
$$
                ***SASKATCHEWAN***

CITY           SKY/WX    TMP DP  RH WIND       PRES   REMARKS
ESTEVAN        PTCLDY    66  37  34 SW7       29.85S
KINDERSLEY     PTCLDY    52  46  82 N9        29.86F
LLOYDMINSTER   MOSUNNY   55  45  67 SE12      29.87S
PRINCE ALBERT  CLOUDY    52  46  82 E9        29.91S
REGINA         NOT AVBL
YORKTON        CLEAR     61  48  63 E13G18    29.85R
N. BATTLEFORD  MOCLDY    52  45  76 E7        29.91S
LA RONGE       NOT AVBL
SASKATOON      NOT AVBL
SWIFT CURRENT  MOCLDY    52  46  82 W7        29.84R
$$
NOTE: THESE ARE AUTOMATED STATIONS WITH LIMITED QUALITY CONTROL
      "FAIR" INDICATES FEW OR NO CLOUDS BELOW 12,000 FEET WITH NO
      SIGNIFICANT WEATHER AND/OR OBSTRUCTIONS TO VISIBILITY.
      SKY/WX - SKY CONDITION AND SIGNIFICANT WEATHER.
      TMP - AIR TEMPERATURE.    DP   - DEWPOINT TEMPERATURE.
      RH  - RELATIVE HUMIDITY.  PRES - PRESSURE.
      HX  - HEAT INDEX.         WCI  - WIND CHILL INDEX.
$



USA.gov is the U.S. government's official web portal to all federal, state and local government web resources and services.